Volver al catálogo

STARLINK-3909

ActivoComunicacionesVLEO
NORAD 52452·PAYLOAD·🇺🇸 United States

Lanzado May 6, 2022 desde Cape Canaveral Space Force Station

Loading…

Próximos Pases (próximas 24 horas)

TLE

ActualizadoSource: CelesTrak SupGP

Época: Sep 14, 2026, 20:46 UTC

1 52452C 22049B   26257.86576389  .00641540  00000+0  24125-1 0  2570
2 52452  53.1610 297.2095 0001265  91.5707 325.2625 15.26293629    14

Sigue STARLINK-3909 en tiempo real con AllMySat

Download on the App Store